contact:dominique.lefevre@mio.osupytheas.fr, maurice.libes@osupytheas.fr, didier.mallarino@osupytheas.fr
Project:EMSO http://www.emso-fr.org/EMSO-France
Depth: 2436.0 m
Title:EMSO Ligure Ouest : Data MII capteur AQUADOPP
Date,Latitude,Longitude,X_East,Y_North,Z_Up,Amplitude_X,Amplitude_Y,Amplitude_Z,Batterie,SoundSpeed,Heading,Pitch,Roll,Pressure,TIS,Speed,Direction
, degrees North, degrees East, m.s-1, m.s-1,m.s-1, 1, 1, 1, Volt, m.s-1, degree, degree, degree, dbar, degree_C, m.s-1, degree
2020-07-19T00:04:02,42.805,6.029,-0.021,0.028,0.003,103.0,110.0,101.0,13.4,1505.3,325.4,-0.7,1.8,2470.362,13.32,0.035,323.1
2020-07-19T00:07:02,42.805,6.029,-0.023,0.017,-0.029,104.0,112.0,101.0,13.4,1505.3,325.7,-0.7,1.8,2470.355,13.32,0.028,306.5
2020-07-19T00:10:03,42.805,6.029,-0.028,0.011,-0.027,105.0,112.0,101.0,13.4,1505.3,325.3,-0.7,1.8,2470.354,13.33,0.03,291.4
2020-07-19T00:13:02,42.805,6.029,-0.03,0.027,-0.011,105.0,111.0,101.0,13.3,1505.3,326.7,-0.7,1.8,2470.37,13.33,0.04,312.0
2020-07-19T00:16:03,42.805,6.029,-0.017,0.009,-0.005,103.0,111.0,103.0,13.4,1505.3,326.8,-0.7,1.8,2470.331,13.33,0.019,297.9
2020-07-19T00:19:03,42.805,6.029,-0.025,0.029,-0.017,105.0,111.0,102.0,13.3,1505.3,325.2,-0.7,1.8,2470.358,13.33,0.038,319.2
2020-07-19T00:22:02,42.805,6.029,0.0,0.016,0.021,105.0,110.0,101.0,13.3,1505.3,325.1,-0.7,1.8,2470.301,13.33,0.016,0.0
2020-07-19T00:25:03,42.805,6.029,-0.056,0.018,-0.034,104.0,111.0,102.0,13.4,1505.3,327.2,-0.7,1.8,2470.303,13.33,0.058,287.8
2020-07-19T00:28:03,42.805,6.029,-0.013,0.016,0.012,103.0,109.0,102.0,13.4,1505.3,323.6,-0.7,1.8,2470.314,13.33,0.02,320.9
2020-07-19T00:31:03,42.805,6.029,-0.048,0.009,-0.008,104.0,110.0,103.0,13.4,1505.3,326.8,-0.7,1.8,2470.31,13.33,0.048,280.6
2020-07-19T00:34:02,42.805,6.029,-0.04,0.014,-0.032,104.0,111.0,102.0,13.3,1505.3,326.9,-0.7,1.8,2470.304,13.33,0.042,289.3
2020-07-19T00:37:02,42.805,6.029,-0.033,0.012,-0.033,103.0,111.0,101.0,13.4,1505.3,324.5,-0.7,1.9,2470.341,13.33,0.035,290.0
2020-07-19T00:40:03,42.805,6.029,-0.032,0.007,-0.039,103.0,111.0,102.0,13.4,1505.3,323.5,-0.7,1.8,2470.323,13.33,0.032,282.3
2020-07-19T00:43:03,42.805,6.029,-0.017,0.019,-0.017,104.0,110.0,101.0,13.3,1505.3,324.1,-0.7,1.8,2470.322,13.33,0.025,318.2
2020-07-19T00:46:02,42.805,6.029,-0.025,0.015,0.014,104.0,110.0,102.0,13.3,1505.3,326.5,-0.7,1.8,2470.297,13.33,0.029,301.0
2020-07-19T00:49:02,42.805,6.029,-0.023,0.029,-0.006,104.0,110.0,101.0,13.4,1505.3,326.3,-0.7,1.8,2470.322,13.33,0.037,321.6
2020-07-19T00:52:02,42.805,6.029,-0.014,0.02,-0.018,103.0,111.0,102.0,13.4,1505.3,325.3,-0.7,1.8,2470.306,13.33,0.024,325.0
2020-07-19T00:55:03,42.805,6.029,-0.031,0.021,-0.023,105.0,111.0,102.0,13.3,1505.3,325.5,-0.7,1.9,2470.306,13.33,0.037,304.1
2020-07-19T00:58:02,42.805,6.029,-0.016,0.018,0.001,104.0,112.0,100.0,13.4,1505.3,326.4,-0.7,1.8,2470.295,13.33,0.024,318.4
2020-07-19T01:04:02,42.805,6.029,-0.002,0.018,-0.008,105.0,111.0,103.0,13.3,1505.3,327.8,-0.7,1.8,2470.364,13.31,0.018,353.7
2020-07-19T01:07:03,42.805,6.029,-0.034,0.005,-0.016,104.0,111.0,101.0,13.4,1505.3,326.0,-0.7,1.9,2470.304,13.32,0.034,278.4
2020-07-19T01:10:03,42.805,6.029,-0.016,0.007,-0.027,104.0,110.0,103.0,13.4,1505.3,323.8,-0.7,1.8,2470.33,13.32,0.017,293.6
2020-07-19T01:13:03,42.805,6.029,-0.035,0.017,-0.027,103.0,112.0,102.0,13.4,1505.3,325.2,-0.7,1.8,2470.355,13.33,0.038,295.9
2020-07-19T01:16:03,42.805,6.029,-0.026,0.003,-0.032,104.0,112.0,101.0,13.4,1505.3,324.9,-0.7,1.8,2470.3,13.33,0.026,276.6
2020-07-19T01:19:02,42.805,6.029,-0.023,0.025,0.016,103.0,112.0,102.0,13.4,1505.3,326.3,-0.7,1.8,2470.334,13.33,0.033,317.4
2020-07-19T01:22:02,42.805,6.029,-0.026,0.026,-0.026,106.0,112.0,101.0,13.4,1505.3,325.3,-0.7,1.8,2470.33,13.33,0.036,315.0
2020-07-19T01:25:03,42.805,6.029,-0.021,0.019,-0.036,103.0,110.0,101.0,13.4,1505.3,323.5,-0.7,1.8,2470.32,13.33,0.028,312.1
2020-07-19T01:28:03,42.805,6.029,-0.004,0.011,0.001,102.0,112.0,101.0,13.4,1505.3,326.4,-0.7,1.9,2470.321,13.33,0.011,340.0
2020-07-19T01:31:03,42.805,6.029,-0.03,0.032,-0.015,104.0,113.0,102.0,13.4,1505.3,328.1,-0.7,1.9,2470.314,13.33,0.043,316.9
2020-07-19T01:34:03,42.805,6.029,-0.022,0.023,-0.023,103.0,112.0,100.0,13.3,1505.3,326.1,-0.7,1.8,2470.31,13.33,0.031,316.3
2020-07-19T01:37:02,42.805,6.029,-0.022,-0.001,-0.037,104.0,111.0,101.0,13.4,1505.3,328.1,-0.7,1.8,2470.335,13.33,0.022,267.4
2020-07-19T01:40:03,42.805,6.029,-0.056,0.014,-0.034,105.0,111.0,101.0,13.4,1505.3,323.8,-0.7,1.8,2470.335,13.33,0.057,284.0
2020-07-19T01:43:03,42.805,6.029,-0.013,0.013,-0.017,104.0,112.0,101.0,13.4,1505.3,324.2,-0.7,1.8,2470.329,13.33,0.018,315.0
2020-07-19T01:46:02,42.805,6.029,-0.041,0.016,0.001,104.0,113.0,100.0,13.4,1505.3,328.1,-0.7,1.8,2470.304,13.33,0.044,291.3
2020-07-19T01:49:03,42.805,6.029,-0.039,0.006,0.002,103.0,113.0,101.0,13.4,1505.3,326.3,-0.7,1.8,2470.312,13.33,0.039,278.7
2020-07-19T01:52:02,42.805,6.029,-0.023,0.022,-0.005,102.0,114.0,101.0,13.4,1505.3,327.1,-0.7,1.8,2470.335,13.33,0.031,313.7
2020-07-19T01:55:03,42.805,6.029,-0.026,0.022,-0.019,103.0,112.0,100.0,13.4,1505.3,323.8,-0.7,1.8,2470.314,13.33,0.034,310.2
2020-07-19T01:58:03,42.805,6.029,-0.033,0.007,-0.02,104.0,112.0,101.0,13.3,1505.3,326.7,-0.7,1.8,2470.329,13.33,0.033,282.0
2020-07-19T02:04:02,42.805,6.029,-0.014,0.01,-0.02,101.0,112.0,101.0,13.4,1505.3,323.8,-0.7,1.8,2470.383,13.31,0.017,305.5
2020-07-19T02:07:02,42.805,6.029,-0.041,0.003,-0.043,104.0,111.0,101.0,13.4,1505.3,325.9,-0.7,1.8,2470.345,13.32,0.041,274.2
2020-07-19T02:10:03,42.805,6.029,-0.018,0.012,-0.063,102.0,115.0,102.0,13.3,1505.3,326.6,-0.7,1.8,2470.365,13.33,0.021,303.7
2020-07-19T02:13:03,42.805,6.029,-0.045,0.018,0.0,103.0,112.0,102.0,13.4,1505.3,324.3,-0.7,1.8,2470.34,13.33,0.048,291.8
2020-07-19T02:16:03,42.805,6.029,-0.026,0.017,-0.028,104.0,111.0,101.0,13.4,1505.3,323.9,-0.7,1.8,2470.322,13.33,0.031,303.2
2020-07-19T02:19:02,42.805,6.029,-0.028,-0.004,0.007,104.0,111.0,101.0,13.4,1505.3,326.4,-0.7,1.8,2470.324,13.33,0.028,261.9
2020-07-19T02:22:02,42.805,6.029,-0.023,0.017,-0.032,103.0,113.0,101.0,13.4,1505.4,328.3,-0.7,1.8,2470.358,13.34,0.028,306.5
2020-07-19T02:25:03,42.805,6.029,-0.015,0.02,-0.021,103.0,112.0,101.0,13.4,1505.4,325.4,-0.6,1.8,2470.317,13.34,0.025,323.1
2020-07-19T02:28:03,42.805,6.029,-0.025,0.021,-0.018,103.0,112.0,102.0,13.3,1505.4,325.8,-0.7,1.9,2470.363,13.34,0.032,310.0
2020-07-19T02:31:03,42.805,6.029,-0.01,0.039,-0.011,102.0,110.0,102.0,13.4,1505.4,327.8,-0.7,1.8,2470.33,13.34,0.04,345.6
2020-07-19T02:34:03,42.805,6.029,-0.03,0.012,-0.048,104.0,111.0,101.0,13.4,1505.4,327.0,-0.7,1.8,2470.327,13.34,0.032,291.8
2020-07-19T02:37:02,42.805,6.029,-0.014,0.017,-0.043,105.0,111.0,101.0,13.4,1505.4,326.8,-0.7,1.8,2470.32,13.34,0.022,320.5
2020-07-19T02:40:02,42.805,6.029,-0.032,0.022,-0.021,103.0,110.0,101.0,13.4,1505.4,323.4,-0.7,1.8,2470.317,13.34,0.038,304.5
2020-07-19T02:43:03,42.805,6.029,-0.007,0.023,-0.026,103.0,110.0,101.0,13.3,1505.4,327.3,-0.7,1.8,2470.345,13.34,0.024,343.1
2020-07-19T02:46:03,42.805,6.029,-0.031,0.015,-0.042,103.0,112.0,103.0,13.4,1505.4,328.2,-0.7,1.8,2470.299,13.34,0.034,295.8
2020-07-19T02:49:03,42.805,6.029,-0.026,0.02,0.004,103.0,112.0,100.0,13.4,1505.4,324.4,-0.7,1.8,2470.373,13.34,0.032,307.6
2020-07-19T02:52:02,42.805,6.029,-0.03,0.008,-0.023,104.0,112.0,101.0,13.4,1505.4,324.6,-0.7,1.9,2470.326,13.34,0.031,284.9
2020-07-19T02:55:03,42.805,6.029,-0.023,0.006,-0.007,102.0,112.0,101.0,13.4,1505.4,323.2,-0.7,1.9,2470.312,13.34,0.023,284.6
2020-07-19T02:58:03,42.805,6.029,-0.033,0.024,-0.011,103.0,111.0,101.0,13.4,1505.4,326.4,-0.7,1.8,2470.354,13.34,0.04,306.0
2020-07-19T03:04:02,42.805,6.029,-0.025,0.014,0.0,102.0,111.0,101.0,13.4,1505.3,324.0,-0.7,1.8,2470.37,13.32,0.028,299.3
2020-07-19T03:07:02,42.805,6.029,-0.024,0.022,-0.028,102.0,111.0,101.0,13.4,1505.3,323.0,-0.7,1.8,2470.384,13.33,0.032,312.5
2020-07-19T03:10:03,42.805,6.029,-0.014,-0.002,-0.03,104.0,111.0,101.0,13.4,1505.3,322.8,-0.7,1.8,2470.368,13.33,0.014,261.9
2020-07-19T03:13:03,42.805,6.029,0.006,-0.006,-0.021,102.0,112.0,100.0,13.3,1505.3,325.3,-0.7,1.8,2470.375,13.33,0.008,135.0
2020-07-19T03:16:03,42.805,6.029,-0.013,0.02,-0.041,102.0,111.0,101.0,13.4,1505.3,325.1,-0.7,1.8,2470.351,13.33,0.023,327.0
2020-07-19T03:19:03,42.805,6.029,-0.057,0.014,-0.027,104.0,111.0,101.0,13.3,1505.4,325.0,-0.7,1.8,2470.365,13.34,0.058,283.8
2020-07-19T03:22:02,42.805,6.029,-0.015,0.002,-0.041,102.0,110.0,101.0,13.3,1505.4,326.8,-0.7,1.8,2470.358,13.34,0.015,277.6
2020-07-19T03:25:03,42.805,6.029,-0.013,0.016,-0.021,102.0,111.0,101.0,13.3,1505.4,328.1,-0.7,1.8,2470.388,13.34,0.02,320.9
2020-07-19T03:28:03,42.805,6.029,-0.011,0.0,-0.02,102.0,111.0,102.0,13.4,1505.4,326.5,-0.7,1.8,2470.331,13.34,0.011,270.0
2020-07-19T03:31:03,42.805,6.029,-0.023,0.017,-0.033,105.0,111.0,102.0,13.4,1505.4,323.3,-0.7,1.8,2470.341,13.34,0.028,306.5
2020-07-19T03:34:03,42.805,6.029,-0.026,0.021,-0.022,103.0,111.0,102.0,13.3,1505.4,326.8,-0.7,1.8,2470.337,13.34,0.033,308.9
2020-07-19T03:37:02,42.805,6.029,-0.041,0.012,-0.046,104.0,109.0,101.0,13.4,1505.4,324.6,-0.7,1.8,2470.357,13.34,0.042,286.3
2020-07-19T03:40:03,42.805,6.029,-0.031,0.007,-0.059,106.0,109.0,100.0,13.3,1505.4,328.4,-0.7,1.8,2470.39,13.34,0.031,282.7
2020-07-19T03:43:03,42.805,6.029,0.013,0.013,0.0,104.0,109.0,102.0,13.4,1505.4,326.3,-0.7,1.9,2470.35,13.34,0.018,45.0
2020-07-19T03:46:02,42.805,6.029,-0.029,0.023,-0.036,105.0,112.0,101.0,13.3,1505.4,327.7,-0.7,1.8,2470.375,13.34,0.037,308.4
2020-07-19T03:49:03,42.805,6.029,-0.02,0.029,-0.007,104.0,112.0,102.0,13.4,1505.4,325.9,-0.7,1.8,2470.366,13.34,0.035,325.4
2020-07-19T03:52:02,42.805,6.029,-0.031,0.013,-0.021,103.0,111.0,101.0,13.4,1505.4,326.3,-0.7,1.8,2470.375,13.34,0.033,292.7
2020-07-19T03:55:03,42.805,6.029,-0.008,0.021,-0.012,105.0,112.0,101.0,13.3,1505.4,322.9,-0.7,1.8,2470.398,13.34,0.022,339.1
2020-07-19T03:58:03,42.805,6.029,-0.046,0.01,-0.059,103.0,111.0,101.0,13.4,1505.4,323.6,-0.7,1.8,2470.367,13.34,0.047,282.3
2020-07-19T04:04:02,42.805,6.029,-0.023,-0.006,-0.032,101.0,111.0,103.0,13.4,1505.3,326.5,-0.7,1.8,2470.458,13.32,0.023,255.4
2020-07-19T04:07:02,42.805,6.029,-0.026,0.006,-0.037,104.0,111.0,101.0,13.4,1505.3,324.7,-0.7,1.8,2470.431,13.33,0.026,283.0
2020-07-19T04:10:03,42.805,6.029,-0.029,0.014,-0.03,102.0,109.0,100.0,13.3,1505.3,323.4,-0.7,1.8,2470.416,13.33,0.032,295.8
2020-07-19T04:13:03,42.805,6.029,-0.03,0.003,-0.021,104.0,111.0,101.0,13.4,1505.3,324.7,-0.7,1.8,2470.39,13.33,0.03,275.7
2020-07-19T04:16:03,42.805,6.029,-0.003,0.028,-0.009,104.0,110.0,101.0,13.4,1505.4,327.0,-0.7,1.8,2470.424,13.34,0.028,353.9
2020-07-19T04:19:03,42.805,6.029,-0.018,0.009,-0.025,102.0,109.0,101.0,13.4,1505.4,326.5,-0.7,1.8,2470.396,13.34,0.02,296.6
2020-07-19T04:22:03,42.805,6.029,-0.019,0.008,-0.034,103.0,110.0,101.0,13.4,1505.4,326.3,-0.7,1.8,2470.429,13.34,0.02,292.8
2020-07-19T04:25:02,42.805,6.029,-0.011,0.029,0.0,105.0,111.0,102.0,13.4,1505.4,324.8,-0.7,1.8,2470.371,13.34,0.031,339.2
2020-07-19T04:28:03,42.805,6.029,-0.01,0.02,-0.011,103.0,110.0,101.0,13.3,1505.4,328.0,-0.7,1.9,2470.401,13.34,0.022,333.4
2020-07-19T04:31:03,42.805,6.029,-0.041,0.031,-0.018,104.0,111.0,101.0,13.3,1505.4,322.9,-0.7,1.8,2470.431,13.34,0.051,307.1
2020-07-19T04:34:03,42.805,6.029,-0.031,-0.006,-0.026,102.0,110.0,102.0,13.4,1505.4,323.7,-0.7,1.8,2470.389,13.34,0.031,259.0
2020-07-19T04:37:02,42.805,6.029,-0.019,0.005,-0.018,103.0,110.0,101.0,13.4,1505.4,325.7,-0.7,1.8,2470.391,13.34,0.019,284.7
2020-07-19T04:40:03,42.805,6.029,-0.014,0.019,-0.013,105.0,110.0,101.0,13.4,1505.4,326.4,-0.7,1.8,2470.402,13.34,0.023,323.6
2020-07-19T04:43:03,42.805,6.029,-0.023,0.02,-0.006,103.0,111.0,102.0,13.4,1505.4,324.9,-0.7,1.8,2470.418,13.34,0.03,311.0
2020-07-19T04:46:03,42.805,6.029,-0.025,0.024,-0.011,104.0,110.0,102.0,13.3,1505.4,326.4,-0.7,1.8,2470.399,13.34,0.034,313.8
2020-07-19T04:49:03,42.805,6.029,0.008,0.017,0.029,105.0,110.0,102.0,13.4,1505.4,324.2,-0.7,1.9,2470.416,13.34,0.018,25.2
2020-07-19T04:52:02,42.805,6.029,-0.017,0.015,-0.025,104.0,110.0,102.0,13.4,1505.4,326.9,-0.7,1.8,2470.397,13.34,0.022,311.4
2020-07-19T04:55:03,42.805,6.029,0.021,0.026,-0.007,105.0,110.0,102.0,13.4,1505.4,326.7,-0.7,1.8,2470.414,13.34,0.033,38.9
2020-07-19T04:58:03,42.805,6.029,-0.022,0.017,-0.028,103.0,110.0,100.0,13.4,1505.4,326.5,-0.7,1.9,2470.404,13.34,0.027,307.7
2020-07-19T05:04:02,42.805,6.029,-0.019,0.016,-0.033,103.0,111.0,101.0,13.3,1505.3,327.2,-0.7,1.9,2470.459,13.32,0.024,310.1
2020-07-19T05:07:02,42.805,6.029,-0.023,0.016,-0.003,104.0,109.0,102.0,13.4,1505.3,328.4,-0.7,1.9,2470.404,13.33,0.028,304.8
2020-07-19T05:10:03,42.805,6.029,-0.021,-0.002,-0.027,105.0,111.0,103.0,13.4,1505.3,327.6,-0.7,1.8,2470.431,13.33,0.021,264.6
2020-07-19T05:13:03,42.805,6.029,-0.021,0.009,0.002,103.0,109.0,102.0,13.3,1505.3,323.2,-0.7,1.8,2470.415,13.33,0.022,293.2
2020-07-19T05:16:03,42.805,6.029,0.004,0.008,0.019,104.0,110.0,103.0,13.4,1505.4,323.5,-0.7,1.8,2470.408,13.34,0.008,26.6
2020-07-19T05:19:03,42.805,6.029,0.0,0.01,0.006,105.0,109.0,102.0,13.3,1505.4,325.0,-0.7,1.8,2470.408,13.34,0.01,0.0
2020-07-19T05:22:02,42.805,6.029,-0.002,0.017,-0.004,103.0,110.0,102.0,13.3,1505.4,325.8,-0.7,1.9,2470.399,13.34,0.017,353.3
2020-07-19T05:25:02,42.805,6.029,-0.002,0.007,0.006,104.0,110.0,101.0,13.4,1505.4,325.9,-0.7,1.8,2470.436,13.34,0.007,344.1
2020-07-19T05:28:03,42.805,6.029,0.023,0.008,0.019,103.0,108.0,101.0,13.3,1505.4,323.0,-0.7,1.8,2470.432,13.34,0.024,70.8
2020-07-19T05:31:03,42.805,6.029,-0.015,0.021,0.04,103.0,109.0,101.0,13.4,1505.4,324.8,-0.7,1.8,2470.401,13.34,0.025,324.5
2020-07-19T05:34:03,42.805,6.029,0.015,0.001,-0.027,102.0,109.0,103.0,13.3,1505.4,325.6,-0.7,1.8,2470.387,13.34,0.015,86.2
2020-07-19T05:37:02,42.805,6.029,-0.003,0.019,-0.021,104.0,110.0,103.0,13.4,1505.4,327.2,-0.7,1.8,2470.412,13.34,0.019,351.0
2020-07-19T05:40:03,42.805,6.029,0.009,0.0,0.032,105.0,110.0,102.0,13.4,1505.4,323.2,-0.7,1.8,2470.395,13.34,0.009,90.0
2020-07-19T05:43:03,42.805,6.029,-0.005,0.008,0.003,104.0,110.0,101.0,13.3,1505.4,324.2,-0.7,1.8,2470.442,13.34,0.009,328.0
2020-07-19T05:46:03,42.805,6.029,-0.024,0.035,0.012,104.0,109.0,101.0,13.4,1505.4,324.6,-0.7,1.8,2470.408,13.34,0.042,325.6
2020-07-19T05:49:03,42.805,6.029,0.022,0.024,0.001,104.0,108.0,102.0,13.3,1505.4,325.0,-0.7,1.8,2470.466,13.34,0.032,42.5
2020-07-19T05:52:02,42.805,6.029,0.003,0.008,0.002,104.0,110.0,101.0,13.4,1505.4,323.4,-0.7,1.9,2470.403,13.34,0.008,20.6
2020-07-19T05:55:03,42.805,6.029,0.001,0.006,-0.017,103.0,109.0,102.0,13.3,1505.4,328.3,-0.7,1.8,2470.455,13.34,0.006,9.5
2020-07-19T05:58:03,42.805,6.029,-0.017,0.007,-0.011,104.0,109.0,102.0,13.3,1505.4,325.6,-0.7,1.9,2470.426,13.34,0.018,292.4
2020-07-19T06:04:03,42.805,6.029,-0.007,0.007,0.028,103.0,108.0,102.0,13.3,1505.3,323.5,-0.8,1.8,2470.458,13.33,0.009,315.0
2020-07-19T06:07:02,42.805,6.029,0.017,0.016,0.015,105.0,108.0,102.0,13.4,1505.3,327.5,-0.7,1.8,2470.406,13.33,0.023,46.7
2020-07-19T06:10:03,42.805,6.029,-0.023,0.015,-0.007,104.0,109.0,102.0,13.4,1505.4,327.1,-0.7,1.9,2470.428,13.34,0.027,303.1
2020-07-19T06:13:03,42.805,6.029,0.019,0.015,0.012,105.0,109.0,101.0,13.4,1505.4,327.8,-0.7,1.9,2470.473,13.34,0.024,51.7
2020-07-19T06:16:03,42.805,6.029,0.0,0.003,-0.002,105.0,108.0,101.0,13.3,1505.4,323.6,-0.7,1.8,2470.456,13.34,0.003,0.0
2020-07-19T06:19:03,42.805,6.029,0.012,0.013,-0.034,103.0,109.0,101.0,13.3,1505.4,325.2,-0.7,1.8,2470.423,13.34,0.017,42.7
2020-07-19T06:22:03,42.805,6.029,0.009,-0.013,-0.007,103.0,110.0,102.0,13.4,1505.4,324.9,-0.7,1.8,2470.401,13.34,0.015,145.3
2020-07-19T06:25:02,42.805,6.029,0.006,0.012,0.01,103.0,108.0,101.0,13.3,1505.4,326.4,-0.7,1.8,2470.428,13.34,0.013,26.6
2020-07-19T06:28:02,42.805,6.029,0.009,0.012,-0.003,104.0,109.0,101.0,13.4,1505.4,325.3,-0.7,1.8,2470.402,13.34,0.015,36.9
2020-07-19T06:31:03,42.805,6.029,0.007,0.017,-0.007,104.0,108.0,101.0,13.4,1505.4,326.0,-0.7,1.8,2470.401,13.34,0.018,22.4
2020-07-19T06:34:03,42.805,6.029,-0.002,0.006,-0.017,104.0,109.0,101.0,13.4,1505.4,323.4,-0.7,1.8,2470.344,13.34,0.006,341.6
2020-07-19T06:37:02,42.805,6.029,-0.007,0.014,-0.03,103.0,108.0,102.0,13.4,1505.4,324.4,-0.7,1.8,2470.376,13.34,0.015,333.4
2020-07-19T06:40:03,42.805,6.029,0.015,0.028,0.006,104.0,107.0,101.0,13.4,1505.4,324.4,-0.7,1.8,2470.458,13.34,0.031,28.2
2020-07-19T06:43:03,42.805,6.029,-0.002,-0.011,-0.005,103.0,109.0,100.0,13.4,1505.4,324.6,-0.7,1.8,2470.434,13.34,0.011,190.3
2020-07-19T06:46:03,42.805,6.029,0.008,0.005,-0.016,104.0,107.0,101.0,13.4,1505.4,324.6,-0.7,1.8,2470.416,13.34,0.009,58.0
2020-07-19T06:49:03,42.805,6.029,0.002,0.016,0.008,106.0,107.0,101.0,13.4,1505.4,326.1,-0.7,1.8,2470.409,13.34,0.016,7.1
2020-07-19T06:52:03,42.805,6.029,-0.009,-0.012,-0.016,106.0,106.0,101.0,13.4,1505.4,323.5,-0.7,1.8,2470.426,13.34,0.015,216.9
2020-07-19T06:55:03,42.805,6.029,0.001,-0.004,-0.025,103.0,107.0,101.0,13.3,1505.4,325.1,-0.7,1.8,2470.389,13.34,0.004,166.0
2020-07-19T06:58:03,42.805,6.029,0.026,0.024,0.05,104.0,107.0,102.0,13.4,1505.4,325.1,-0.7,1.9,2470.435,13.34,0.035,47.3
2020-07-19T07:01:03,42.805,6.029,0.022,0.011,0.032,103.0,107.0,103.0,13.4,1505.4,327.7,-0.7,1.8,2470.394,13.35,0.024,63.4
2020-07-19T07:04:02,42.805,6.029,0.014,-0.005,0.066,104.0,108.0,102.0,13.4,1505.4,326.4,-0.7,1.8,2470.397,13.35,0.014,109.6
2020-07-19T07:07:02,42.805,6.029,-0.003,-0.009,-0.031,103.0,108.0,101.0,13.3,1505.4,325.6,-0.7,1.8,2470.421,13.35,0.009,198.4
2020-07-19T07:10:03,42.805,6.029,0.001,0.026,0.019,102.0,108.0,101.0,13.4,1505.4,325.3,-0.7,1.8,2470.4,13.35,0.026,2.2
2020-07-19T07:13:03,42.805,6.029,0.015,-0.01,0.008,107.0,108.0,101.0,13.3,1505.4,327.5,-0.7,1.8,2470.422,13.35,0.018,123.7
2020-07-19T07:16:03,42.805,6.029,-0.009,-0.003,-0.032,103.0,108.0,101.0,13.4,1505.4,327.0,-0.7,1.9,2470.401,13.35,0.009,251.6
2020-07-19T07:19:03,42.805,6.029,0.009,0.009,0.005,104.0,109.0,102.0,13.4,1505.4,327.2,-0.7,1.8,2470.407,13.35,0.012,45.0
2020-07-19T07:22:02,42.805,6.029,0.029,0.023,-0.022,104.0,107.0,101.0,13.3,1505.4,324.4,-0.7,1.9,2470.382,13.35,0.037,51.6
2020-07-19T07:25:03,42.805,6.029,-0.008,0.009,-0.002,104.0,108.0,101.0,13.4,1505.4,324.3,-0.7,1.8,2470.382,13.35,0.012,318.4
2020-07-19T07:28:03,42.805,6.029,-0.012,0.004,-0.023,103.0,109.0,102.0,13.4,1505.4,327.4,-0.7,1.9,2470.414,13.35,0.012,288.4
2020-07-19T07:31:03,42.805,6.029,0.021,-0.009,0.009,105.0,106.0,102.0,13.4,1505.4,323.4,-0.7,1.8,2470.363,13.34,0.022,113.2
2020-07-19T07:34:03,42.805,6.029,0.037,0.004,0.035,104.0,106.0,101.0,13.4,1505.4,326.5,-0.7,1.8,2470.399,13.35,0.037,83.8
2020-07-19T07:37:02,42.805,6.029,0.005,0.018,0.001,103.0,108.0,101.0,13.4,1505.4,326.0,-0.7,1.8,2470.364,13.35,0.018,15.5
2020-07-19T07:40:03,42.805,6.029,0.008,0.006,-0.026,105.0,107.0,100.0,13.4,1505.4,326.9,-0.7,1.8,2470.39,13.35,0.01,53.1
2020-07-19T07:43:03,42.805,6.029,0.004,-0.007,-0.01,105.0,106.0,101.0,13.3,1505.4,325.5,-0.7,1.8,2470.376,13.35,0.008,150.3
2020-07-19T07:46:03,42.805,6.029,0.002,0.003,-0.014,105.0,105.0,101.0,13.4,1505.4,327.7,-0.7,1.8,2470.378,13.35,0.003,33.7
2020-07-19T07:49:03,42.805,6.029,0.01,0.016,0.03,103.0,106.0,102.0,13.3,1505.4,327.8,-0.6,1.8,2470.358,13.35,0.018,32.0
2020-07-19T07:52:02,42.805,6.029,-0.003,0.018,0.018,103.0,107.0,102.0,13.4,1505.4,324.9,-0.7,1.8,2470.415,13.35,0.018,350.5
2020-07-19T07:55:03,42.805,6.029,0.001,0.012,0.0,104.0,108.0,102.0,13.4,1505.4,324.7,-0.7,1.8,2470.352,13.35,0.012,4.8
2020-07-19T07:58:03,42.805,6.029,0.001,0.014,0.003,102.0,109.0,102.0,13.3,1505.4,325.8,-0.7,1.8,2470.355,13.35,0.014,4.1
2020-07-19T08:04:02,42.805,6.029,0.012,0.007,0.02,102.0,106.0,101.0,13.3,1505.3,326.1,-0.7,1.8,2470.429,13.33,0.013,59.7
2020-07-19T08:07:02,42.805,6.029,-0.01,0.012,0.019,104.0,106.0,100.0,13.4,1505.4,325.2,-0.7,1.8,2470.402,13.34,0.015,320.2
2020-07-19T08:10:03,42.805,6.029,-0.007,0.0,-0.005,105.0,107.0,102.0,13.3,1505.4,324.1,-0.7,1.8,2470.382,13.34,0.007,270.0
2020-07-19T08:13:02,42.805,6.029,-0.005,0.023,-0.025,104.0,107.0,102.0,13.4,1505.4,326.5,-0.7,1.8,2470.395,13.34,0.023,347.7
2020-07-19T08:16:03,42.805,6.029,0.052,0.008,0.01,104.0,106.0,100.0,13.3,1505.4,326.9,-0.7,1.8,2470.355,13.35,0.052,81.3
2020-07-19T08:19:03,42.805,6.029,0.029,0.02,0.015,104.0,108.0,102.0,13.4,1505.4,324.9,-0.7,1.8,2470.395,13.35,0.035,55.4
2020-07-19T08:22:02,42.805,6.029,0.019,0.008,0.033,105.0,107.0,101.0,13.4,1505.4,324.5,-0.7,1.8,2470.39,13.35,0.02,67.2
2020-07-19T08:25:03,42.805,6.029,0.013,0.0,0.026,103.0,107.0,102.0,13.4,1505.4,324.4,-0.7,1.8,2470.355,13.35,0.013,90.0
2020-07-19T08:28:03,42.805,6.029,-0.01,0.021,-0.028,104.0,107.0,102.0,13.4,1505.4,324.9,-0.7,1.8,2470.401,13.35,0.023,334.5
2020-07-19T08:31:03,42.805,6.029,0.014,-0.006,0.001,103.0,107.0,102.0,13.4,1505.4,326.6,-0.7,1.8,2470.366,13.35,0.015,113.2
2020-07-19T08:34:03,42.805,6.029,0.03,-0.001,0.019,103.0,106.0,102.0,13.4,1505.4,323.8,-0.7,1.8,2470.391,13.35,0.03,91.9
2020-07-19T08:37:03,42.805,6.029,0.04,0.007,0.021,103.0,108.0,101.0,13.3,1505.4,326.2,-0.7,1.8,2470.413,13.35,0.04,80.1
2020-07-19T08:40:03,42.805,6.029,0.011,0.0,-0.02,103.0,107.0,102.0,13.4,1505.4,326.4,-0.7,1.8,2470.401,13.35,0.011,90.0
2020-07-19T08:43:03,42.805,6.029,0.009,-0.003,-0.022,103.0,106.0,102.0,13.4,1505.4,325.0,-0.7,1.8,2470.351,13.35,0.009,108.4
2020-07-19T08:46:03,42.805,6.029,-0.023,-0.007,-0.053,102.0,107.0,102.0,13.4,1505.4,328.2,-0.7,1.8,2470.356,13.35,0.024,253.1
2020-07-19T08:49:03,42.805,6.029,0.001,0.004,0.013,102.0,107.0,103.0,13.4,1505.4,325.3,-0.7,1.8,2470.362,13.35,0.004,14.0
2020-07-19T08:52:02,42.805,6.029,-0.024,0.0,-0.018,105.0,107.0,101.0,13.4,1505.4,322.9,-0.7,1.8,2470.344,13.35,0.024,270.0
2020-07-19T08:55:03,42.805,6.029,-0.002,0.011,-0.016,108.0,107.0,101.0,13.3,1505.4,323.6,-0.7,1.8,2470.353,13.35,0.011,349.7
2020-07-19T08:58:03,42.805,6.029,0.005,0.006,0.009,103.0,106.0,101.0,13.4,1505.4,327.7,-0.7,1.9,2470.317,13.35,0.007,39.8
2020-07-19T09:04:02,42.805,6.029,0.012,0.012,-0.012,103.0,106.0,101.0,13.4,1505.3,323.8,-0.8,1.8,2470.352,13.33,0.016,45.0
2020-07-19T09:07:02,42.805,6.029,-0.009,0.007,-0.016,105.0,106.0,100.0,13.4,1505.4,323.7,-0.7,1.9,2470.339,13.34,0.011,307.9
2020-07-19T09:10:03,42.805,6.029,0.039,0.004,0.032,103.0,107.0,102.0,13.3,1505.4,327.9,-0.7,1.8,2470.385,13.34,0.039,84.1
2020-07-19T09:13:03,42.805,6.029,0.035,0.001,0.063,102.0,107.0,102.0,13.3,1505.4,326.1,-0.7,1.8,2470.355,13.35,0.035,88.4
2020-07-19T09:16:03,42.805,6.029,0.029,0.024,0.021,103.0,108.0,101.0,13.3,1505.4,325.4,-0.7,1.8,2470.336,13.35,0.037,50.4
2020-07-19T09:19:03,42.805,6.029,0.0,0.01,-0.02,107.0,106.0,102.0,13.4,1505.4,323.0,-0.7,1.8,2470.341,13.35,0.01,0.0
2020-07-19T09:22:03,42.805,6.029,0.067,0.004,0.053,105.0,106.0,101.0,13.3,1505.4,324.6,-0.7,1.8,2470.348,13.35,0.067,86.6
2020-07-19T09:25:03,42.805,6.029,0.026,0.01,0.021,104.0,108.0,102.0,13.4,1505.4,325.3,-0.7,1.9,2470.347,13.35,0.027,69.0
2020-07-19T09:28:03,42.805,6.029,-0.002,-0.017,-0.011,104.0,111.0,103.0,13.3,1505.4,327.7,-0.7,1.8,2470.334,13.35,0.017,186.7
2020-07-19T09:31:03,42.805,6.029,0.012,-0.009,0.006,103.0,106.0,101.0,13.4,1505.4,327.2,-0.7,1.8,2470.35,13.35,0.015,126.9
2020-07-19T09:34:03,42.805,6.029,-0.021,-0.008,-0.032,104.0,107.0,101.0,13.4,1505.4,324.7,-0.7,1.8,2470.317,13.35,0.022,249.1
2020-07-19T09:37:02,42.805,6.029,-0.014,0.005,-0.026,106.0,106.0,101.0,13.4,1505.4,325.4,-0.7,1.8,2470.327,13.35,0.014,289.6
2020-07-19T09:40:03,42.805,6.029,-0.008,-0.013,-0.04,104.0,105.0,101.0,13.4,1505.4,327.0,-0.7,1.8,2470.305,13.35,0.015,211.6
2020-07-19T09:43:03,42.805,6.029,0.036,0.007,0.007,105.0,108.0,101.0,13.3,1505.4,325.4,-0.7,1.8,2470.294,13.35,0.036,79.0
2020-07-19T09:46:03,42.805,6.029,0.008,0.019,-0.006,106.0,107.0,101.0,13.4,1505.4,327.7,-0.7,1.8,2470.304,13.35,0.02,22.8
2020-07-19T09:49:03,42.805,6.029,-0.023,-0.002,0.0,106.0,107.0,102.0,13.4,1505.4,326.3,-0.7,1.8,2470.316,13.35,0.023,265.0
2020-07-19T09:52:03,42.805,6.029,-0.016,-0.003,-0.023,105.0,108.0,101.0,13.3,1505.4,328.2,-0.7,1.8,2470.304,13.35,0.016,259.4
2020-07-19T09:55:03,42.805,6.029,-0.043,-0.013,-0.036,104.0,108.0,102.0,13.4,1505.4,326.6,-0.7,1.9,2470.322,13.35,0.044,253.2